Weather History for College Park, MD

Change the Weather History Date:

Tuesday, October 15, 2013

  Actual Average Record
Temperature  
Mean Temperature 61 °F -  
Max Temperature 72 °F 70 °F 88 °F (1975)
Min Temperature 50 °F 46 °F 32 °F (1979)
Degree Days  
Heating Degree Days 4    
Growing Degree Days 11 (Base 50)    
Moisture  
Dew Point 51 °F    
Average Humidity 77    
Maximum Humidity 100    
Minimum Humidity 28    
Precipitation  
Precipitation 0.00 in - - ()
Sea Level Pressure  
Sea Level Pressure 30.17 in    
Wind  
Wind Speed 1 mph (NE)    
Max Wind Speed 6 mph    
Max Gust Speed -    
Visibility 8 miles    
Events      
Averages and records for this station are not official NWS values.
T = Trace of Precipitation, MM = Missing Value Source: NWS Daily Summary

Daily Weather History Graph

Daily Weather History Graph

Search for Another Location

Airport:

Trip Planner

Search our weather history database for the weather conditions in past years. The results will help you decide how hot, cold, wet, or windy it might be!

Date:

Astronomy

Oct. 15, 2013 Rise Set
Actual Time 7:17 AM EDT 6:28 PM EDT
Civil Twilight 6:50 AM EDT 6:55 PM EDT
Nautical Twilight 6:19 AM EDT 7:26 PM EDT
Astronomical Twilight 5:48 AM EDT 7:57 PM EDT
Moon 4:31 PM EDT (10/15) 3:39 AM EDT (10/15)
Length of Visible Light 12h 05m
Length of Day
11h 11m
Waxing Gibbous, 87% of the Moon is Illuminated
Oct 15
Waxing Gibbous
Oct 18
Full
Oct 26
Last Quarter
Nov 3
New
Nov 10
First Quarter

Hourly Weather History & Observations

Time (EDT) Temp. Dew Point Humidity Pressure Visibility Wind Dir Wind Speed Gust Speed Precip Events Conditions
12:05 AM 54.1 °F 53.8 °F 99% 30.25 in 7.0 mi Calm Calm - N/A   Clear
12:25 AM 53.8 °F 53.6 °F 99% 30.25 in 7.0 mi Calm Calm - N/A   Clear
12:45 AM 53.4 °F 53.1 °F 99% 30.24 in 7.0 mi Calm Calm - N/A   Clear
1:05 AM 53.1 °F 52.7 °F 99% 30.24 in 5.0 mi Calm Calm - N/A   Clear
1:25 AM 52.9 °F 52.7 °F 99% 30.23 in 7.0 mi Calm Calm - N/A   Clear
1:45 AM 52.5 °F 52.2 °F 99% 30.23 in 7.0 mi Calm Calm - N/A   Clear
2:05 AM 52.3 °F 52.2 °F 99% 30.23 in 7.0 mi Calm Calm - N/A   Clear
2:25 AM 52.0 °F 51.8 °F 99% 30.23 in 7.0 mi Calm Calm - N/A   Clear
2:45 AM 51.8 °F 51.8 °F 100% 30.23 in 7.0 mi Calm Calm - N/A   Clear
3:05 AM 51.8 °F 51.4 °F 99% 30.22 in 1.2 mi Calm Calm - N/A   Unknown
3:25 AM 51.4 °F 51.1 °F 99% 30.22 in 7.0 mi Calm Calm - N/A   Clear
3:45 AM 51.1 °F 50.9 °F 99% 30.22 in 7.0 mi Calm Calm - N/A   Scattered Clouds
4:05 AM 51.6 °F 51.3 °F 99% 30.22 in 7.0 mi Calm Calm - N/A   Mostly Cloudy
4:25 AM 51.4 °F 51.1 °F 99% 30.22 in 5.0 mi Calm Calm - N/A   Mostly Cloudy
4:45 AM 51.8 °F 51.4 °F 99% 30.22 in 5.0 mi Calm Calm - N/A   Mostly Cloudy
5:05 AM 51.1 °F 50.9 °F 99% 30.22 in 3.0 mi Calm Calm - N/A   Scattered Clouds
5:25 AM 50.9 °F 50.5 °F 99% 30.22 in 4.0 mi Calm Calm - N/A   Clear
5:45 AM 50.4 °F 50.2 °F 99% 30.21 in 2.5 mi Calm Calm - N/A   Unknown
6:05 AM 50.4 °F 50.2 °F 99% 30.21 in 4.0 mi Calm Calm - N/A   Scattered Clouds
6:25 AM 50.0 °F 49.8 °F 99% 30.21 in 3.0 mi Calm Calm - N/A   Scattered Clouds
6:45 AM 50.5 °F 50.4 °F 99% 30.21 in 4.0 mi Calm Calm - N/A   Mostly Cloudy
7:05 AM 50.9 °F 50.5 °F 99% 30.21 in 0.5 mi Calm Calm - N/A   Overcast
7:25 AM 51.3 °F 51.1 °F 99% 30.21 in 0.2 mi Calm Calm - N/A   Overcast
7:45 AM 51.4 °F 51.1 °F 99% 30.22 in 0.2 mi Calm Calm - N/A   Overcast
8:05 AM 52.2 °F 52.0 °F 99% 30.22 in 0.2 mi Calm Calm - N/A   Overcast
8:25 AM 53.8 °F 53.6 °F 99% 30.22 in 0.5 mi Calm Calm - N/A   Overcast
8:45 AM 55.6 °F 55.2 °F 99% 30.23 in 3.0 mi Calm Calm - N/A   Scattered Clouds
9:05 AM 57.4 °F 57.4 °F 100% 30.22 in 3.0 mi Calm Calm - N/A   Clear
9:25 AM 58.5 °F 57.7 °F 97% 30.23 in 10.0 mi NNW 3.5 mph - N/A   Clear
9:45 AM 59.9 °F 57.4 °F 91% 30.22 in 10.0 mi NNE 4.6 mph - N/A   Clear
10:05 AM 60.6 °F 57.2 °F 88% 30.22 in 10.0 mi Calm Calm - N/A   Clear
10:25 AM 63.5 °F 54.5 °F 72% 30.22 in 10.0 mi North 4.6 mph - N/A   Clear
10:45 AM 64.8 °F 52.9 °F 65% 30.21 in 10.0 mi NNE 3.5 mph - N/A   Clear
11:05 AM 66.0 °F 53.2 °F 63% 30.21 in 10.0 mi ENE 4.6 mph - N/A   Clear
11:25 AM 67.3 °F 53.2 °F 61% 30.20 in 10.0 mi ENE 4.6 mph - N/A   Clear
11:45 AM 67.5 °F 52.0 °F 58% 30.20 in 10.0 mi NNE 5.8 mph - N/A   Clear
12:05 PM 68.4 °F 49.6 °F 51% 30.20 in 10.0 mi NNE 5.8 mph - N/A   Clear
12:25 PM 69.3 °F 47.7 °F 46% 30.20 in 10.0 mi East 4.6 mph - N/A   Clear
12:45 PM 70.5 °F 48.6 °F 46% 30.19 in 10.0 mi North 5.8 mph - N/A   Clear
1:05 PM 70.9 °F 45.5 °F 40% 30.17 in 10.0 mi Calm Calm - N/A   Clear
1:25 PM 71.1 °F 44.4 °F 38% 30.16 in 10.0 mi Calm Calm - N/A   Clear
1:45 PM 72.1 °F 41.5 °F 33% 30.15 in 10.0 mi NE 5.8 mph - N/A   Clear
2:05 PM 72.3 °F 39.0 °F 30% 30.14 in 5.0 mi Calm Calm - N/A   Clear
2:25 PM 72.9 °F 39.0 °F 29% 30.13 in 7.0 mi East 3.5 mph - N/A   Clear
2:45 PM 72.9 °F 38.3 °F 29% 30.13 in 10.0 mi Calm Calm - N/A   Clear
3:05 PM 72.7 °F 39.4 °F 30% 30.13 in 10.0 mi ENE 3.5 mph - N/A   Clear
3:25 PM 72.5 °F 38.1 °F 29% 30.13 in 10.0 mi NE 4.6 mph - N/A   Clear
3:45 PM 72.9 °F 37.6 °F 28% 30.12 in 10.0 mi East 4.6 mph - N/A   Clear
4:05 PM 72.3 °F 37.6 °F 28% 30.12 in 10.0 mi ENE 3.5 mph - N/A   Clear
4:25 PM 71.1 °F 39.2 °F 31% 30.12 in 10.0 mi Calm Calm - N/A   Clear
4:45 PM 71.1 °F 41.4 °F 34% 30.12 in 10.0 mi Calm Calm - N/A   Clear
5:05 PM 70.2 °F 44.1 °F 39% 30.11 in 10.0 mi Calm Calm - N/A   Clear
5:25 PM 68.4 °F 48.2 °F 48% 30.11 in 10.0 mi Calm Calm - N/A   Clear
5:45 PM 66.2 °F 49.3 °F 54% 30.11 in 10.0 mi Calm Calm - N/A   Clear
6:05 PM 63.9 °F 51.6 °F 64% 30.11 in 7.0 mi Calm Calm - N/A   Clear
6:25 PM 62.4 °F 51.8 °F 68% 30.12 in 10.0 mi Calm Calm - N/A   Clear
6:45 PM 61.9 °F 52.7 °F 72% 30.12 in 10.0 mi Calm Calm - N/A   Scattered Clouds
7:05 PM 60.4 °F 53.4 °F 78% 30.12 in 10.0 mi Calm Calm - N/A   Scattered Clouds
7:25 PM 59.5 °F 53.6 °F 81% 30.12 in 10.0 mi Calm Calm - N/A   Scattered Clouds
7:45 PM 59.2 °F 54.5 °F 84% 30.12 in 10.0 mi Calm Calm - N/A   Clear
8:05 PM 59.2 °F 54.7 °F 85% 30.12 in 10.0 mi Calm Calm - N/A   Mostly Cloudy
8:25 PM 59.0 °F 55.6 °F 88% 30.11 in 10.0 mi Calm Calm - N/A   Mostly Cloudy
8:45 PM 58.5 °F 54.3 °F 86% 30.11 in 10.0 mi Calm Calm - N/A   Scattered Clouds
9:05 PM 57.7 °F 54.3 °F 88% 30.11 in 5.0 mi Calm Calm - N/A   Clear
9:25 PM 57.7 °F 55.4 °F 92% 30.11 in 10.0 mi Calm Calm - N/A   Scattered Clouds
9:45 PM 58.5 °F 54.7 °F 87% 30.12 in 10.0 mi Calm Calm - N/A   Overcast
10:05 PM 59.2 °F 56.3 °F 90% 30.12 in 10.0 mi Calm Calm - N/A   Overcast
10:25 PM 59.9 °F 56.3 °F 88% 30.12 in 10.0 mi Calm Calm - N/A   Overcast
10:45 PM 60.3 °F 55.6 °F 85% 30.11 in 10.0 mi Calm Calm - N/A   Overcast
11:05 PM 60.4 °F 56.8 °F 88% 30.10 in 10.0 mi Calm Calm - N/A   Overcast
11:25 PM 60.8 °F 56.1 °F 85% 30.09 in 10.0 mi Calm Calm - N/A   Overcast
11:45 PM 61.3 °F 56.3 °F 83% 30.10 in 10.0 mi Calm Calm - N/A   Overcast